Weather History for Torrington, WY

Change the Weather History Date:

Sunday, March 3, 2013

  Actual Average Record
Temperature  
Mean Temperature 48 °F 35 °F  
Max Temperature 64 °F 48 °F 72 °F (2009)
Min Temperature 32 °F 21 °F -1 °F (2014)
Degree Days  
Heating Degree Days 17 30  
Month to date heating degree days 68 92  
Since 1 July heating degree days 4681 4936  
Cooling Degree Days 0 0  
Month to date cooling degree days 0 0  
Year to date cooling degree days 0 0  
Moisture  
Dew Point 28 °F    
Average Humidity 51    
Maximum Humidity 75    
Minimum Humidity 26    
Precipitation  
Precipitation 0.00 in 0.01 in 0.02 in (2003)
Month to date precipitation 0.00 0.02  
Year to date precipitation 0.30 0.62  
Sea Level Pressure  
Sea Level Pressure 29.67 in    
Wind  
Wind Speed 17 mph (WNW)    
Max Wind Speed 32 mph    
Max Gust Speed 43 mph    
Visibility 10 miles    
Events      
T = Trace of Precipitation, MM = Missing Value Source: NWS Daily Summary

Daily Weather History Graph

Daily Weather History Graph

Search for Another Location

Airport:

Trip Planner

Search our weather history database for the weather conditions in past years. The results will help you decide how hot, cold, wet, or windy it might be!

Date:

Astronomy

Mar. 03, 2013 Rise Set
Actual Time 6:28 AM MST 5:49 PM MST
Civil Twilight 6:00 AM MST 6:17 PM MST
Nautical Twilight 5:27 AM MST 6:49 PM MST
Astronomical Twilight 4:55 AM MST 7:22 PM MST
Moon No Moon Rise 9:38 AM MST (3/3)
Length of Visible Light 12h 17m
Length of Day
11h 21m
Waning Gibbous, 63% of the Moon is Illuminated
Mar 3
Waning Gibbous
Mar 4
Last Quarter
Mar 11
New
Mar 19
First Quarter
Mar 27
Full

Hourly Weather History & Observations

Time (MST) Temp. Windchill Dew Point Humidity Pressure Visibility Wind Dir Wind Speed Gust Speed Precip Events Conditions
12:53 AM 37.9 °F - 27.0 °F 65% 29.90 in 10.0 mi Calm Calm - N/A   Clear
1:53 AM 37.0 °F 34.5 °F 26.1 °F 65% 29.87 in 10.0 mi South 3.5 mph - N/A   Clear
2:53 AM 37.0 °F - 27.0 °F 67% 29.83 in 10.0 mi Calm Calm - N/A   Clear
3:53 AM 33.1 °F 27.7 °F 27.0 °F 78% 29.80 in 10.0 mi SE 5.8 mph - N/A   Clear
5:53 AM 34.0 °F 28.8 °F 27.0 °F 75% 29.78 in 10.0 mi ENE 5.8 mph - N/A   Clear
6:53 AM 36.0 °F 31.1 °F 27.0 °F 70% 29.78 in 10.0 mi North 5.8 mph - N/A   Clear
7:53 AM 50.0 °F - 25.0 °F 38% 29.73 in 10.0 mi West 19.6 mph 27.6 mph N/A   Partly Cloudy
8:53 AM 52.0 °F - 25.0 °F 35% 29.72 in 10.0 mi West 13.8 mph 24.2 mph N/A   Overcast
9:53 AM 54.0 °F - 25.0 °F 33% 29.69 in 10.0 mi West 20.7 mph 32.2 mph N/A   Partly Cloudy
10:53 AM 59.0 °F - 25.0 °F 27% 29.65 in 10.0 mi West 28.8 mph 40.3 mph N/A   Clear
11:53 AM 57.9 °F - 26.1 °F 30% 29.65 in 10.0 mi West 24.2 mph 35.7 mph N/A   Clear
12:53 PM 63.0 °F - 28.0 °F 27% 29.57 in 10.0 mi WNW 21.9 mph 32.2 mph N/A   Clear
1:53 PM 60.1 °F - 28.0 °F 30% 29.57 in 10.0 mi West 27.6 mph 36.8 mph N/A   Partly Cloudy
2:53 PM 57.9 °F - 28.9 °F 33% 29.58 in 10.0 mi West 24.2 mph 33.4 mph N/A   Overcast
3:53 PM 55.9 °F - 28.0 °F 34% 29.59 in 10.0 mi West 18.4 mph 34.5 mph N/A   Clear
4:53 PM 55.0 °F - 30.0 °F 38% 29.59 in 10.0 mi West 26.5 mph 38.0 mph N/A   Clear
5:53 PM 51.1 °F - 30.0 °F 44% 29.60 in 10.0 mi West 13.8 mph 23.0 mph N/A   Clear
6:53 PM 48.9 °F - 30.0 °F 48% 29.58 in 10.0 mi West 21.9 mph 31.1 mph N/A   Clear
7:53 PM 48.0 °F - 30.9 °F 52% 29.53 in 10.0 mi WNW 19.6 mph 32.2 mph N/A   Clear
8:53 PM 48.9 °F - 30.0 °F 48% 29.52 in 10.0 mi West 26.5 mph 36.8 mph N/A   Clear
9:53 PM 48.0 °F - 28.9 °F 48% 29.53 in 10.0 mi WNW 28.8 mph 38.0 mph N/A   Clear
10:43 PM 35.6 °F 23.7 °F 28.4 °F 75% 29.66 in 10.0 mi North 24.2 mph 33.4 mph N/A   Clear
10:53 PM 35.1 °F 24.8 °F 28.9 °F 78% 29.65 in 10.0 mi NNE 17.3 mph - N/A   Clear
11:53 PM 32.0 °F 20.1 °F 23.0 °F 69% 29.70 in 10.0 mi NNW 19.6 mph 29.9 mph N/A   Clear